Time,TemperatureF,DewpointF,PressureIn,WindDirection,WindDirectionDegrees,WindSpeedMPH,WindSpeedGustMPH,Humidity,HourlyPrecipIn,Conditions,Clouds,dailyrainin,SoftwareType,DateUTC
2013-01-18 00:00:00,35.4,28.6,30.04,SW,225,2.3,2.3,76,0.00,CLR,,0.00,WeatherDisplay:10.37,2013-01-18 05:00:00,
2013-01-18 00:01:00,35.4,28.6,30.04,South,180,2.3,2.3,76,0.00,CLR,,0.00,WeatherDisplay:10.37,2013-01-18 05:01:00,
2013-01-18 00:02:00,35.4,28.6,30.04,South,180,2.3,0.0,76,0.00,CLR,,0.00,WeatherDisplay:10.37,2013-01-18 05:02:00,
2013-01-18 00:03:00,35.4,28.6,30.04,South,180,2.3,0.0,76,0.00,CLR,,0.00,WeatherDisplay:10.37,2013-01-18 05:03:00,
2013-01-18 00:08:00,35.6,28.1,30.04,SW,225,2.3,2.3,74,0.00,CLR,,0.00,WeatherDisplay:10.37,2013-01-18 05:08:00,
2013-01-18 00:13:00,35.6,28.1,30.05,South,180,2.3,2.3,74,0.00,CLR,,0.00,WeatherDisplay:10.37,2013-01-18 05:13:00,
2013-01-18 00:18:00,35.6,27.8,30.07,SW,225,2.3,2.3,73,0.00,CLR,,0.00,WeatherDisplay:10.37,2013-01-18 05:18:00,
2013-01-18 00:23:00,35.8,28.0,30.07,SW,225,3.5,3.5,73,0.00,CLR,,0.00,WeatherDisplay:10.37,2013-01-18 05:23:00,
2013-01-18 00:28:00,35.8,27.6,30.06,SE,135,2.3,2.3,72,0.00,CLR,,0.00,WeatherDisplay:10.37,2013-01-18 05:28:00,
2013-01-18 00:33:00,35.6,27.5,30.08,South,180,2.3,2.3,72,0.00,CLR,,0.00,WeatherDisplay:10.37,2013-01-18 05:33:00,
2013-01-18 00:38:00,35.8,27.3,30.08,SW,225,3.5,3.5,71,0.00,CLR,,0.00,WeatherDisplay:10.37,2013-01-18 05:38:00,
2013-01-18 00:43:00,35.6,27.1,30.08,South,180,3.5,3.5,71,0.00,CLR,,0.00,WeatherDisplay:10.37,2013-01-18 05:43:00,
2013-01-18 00:48:00,35.6,27.5,30.08,South,180,2.3,2.3,72,0.00,CLR,,0.00,WeatherDisplay:10.37,2013-01-18 05:48:00,
2013-01-18 00:53:00,35.6,27.1,30.08,SW,225,3.5,3.5,71,0.00,CLR,,0.00,WeatherDisplay:10.37,2013-01-18 05:53:00,
2013-01-18 00:58:00,35.6,27.1,30.08,South,180,2.3,2.3,71,0.00,CLR,,0.00,WeatherDisplay:10.37,2013-01-18 05:58:00,
2013-01-18 01:03:00,35.6,27.1,30.08,South,180,3.5,3.5,71,0.00,CLR,,0.00,WeatherDisplay:10.37,2013-01-18 06:03:00,
2013-01-18 01:08:00,35.4,26.6,30.08,SW,225,4.6,4.6,70,0.00,CLR,,0.00,WeatherDisplay:10.37,2013-01-18 06:08:00,
2013-01-18 01:13:00,35.4,26.6,30.09,SW,225,2.3,2.3,70,0.00,CLR,,0.00,WeatherDisplay:10.37,2013-01-18 06:13:00,
2013-01-18 01:18:00,35.1,26.6,30.09,SW,225,2.3,0.0,71,0.00,CLR,,0.00,WeatherDisplay:10.37,2013-01-18 06:18:00,
2013-01-18 01:23:00,34.9,26.4,30.09,SW,225,1.1,0.0,71,0.00,CLR,,0.00,WeatherDisplay:10.37,2013-01-18 06:23:00,
2013-01-18 01:28:00,34.7,26.3,30.09,NW,315,2.3,0.0,71,0.00,CLR,,0.00,WeatherDisplay:10.37,2013-01-18 06:28:00,
2013-01-18 01:33:00,34.5,26.1,30.10,South,180,2.3,2.3,71,0.00,CLR,,0.00,WeatherDisplay:10.37,2013-01-18 06:33:00,
2013-01-18 01:38:00,34.5,26.1,30.10,West,270,1.6,1.6,71,0.00,CLR,,0.00,WeatherDisplay:10.37,2013-01-18 06:38:00,
2013-01-18 01:43:00,34.3,25.9,30.11,West,270,2.3,2.3,71,0.00,CLR,,0.00,WeatherDisplay:10.37,2013-01-18 06:43:00,
2013-01-18 01:48:00,34.2,25.7,30.11,West,270,2.3,2.3,71,0.00,CLR,,0.00,WeatherDisplay:10.37,2013-01-18 06:48:00,
2013-01-18 01:53:00,34.3,25.9,30.11,West,270,3.5,3.5,71,0.00,CLR,,0.00,WeatherDisplay:10.37,2013-01-18 06:53:00,
2013-01-18 01:58:00,34.3,25.9,30.12,SW,225,2.3,2.3,71,0.00,CLR,,0.00,WeatherDisplay:10.37,2013-01-18 06:58:00,
2013-01-18 02:03:00,34.3,25.9,30.12,SW,225,1.1,0.0,71,0.00,CLR,,0.00,WeatherDisplay:10.37,2013-01-18 07:03:00,
2013-01-18 02:08:00,34.3,25.6,30.13,South,180,2.3,2.3,70,0.00,CLR,,0.00,WeatherDisplay:10.37,2013-01-18 07:08:00,
2013-01-18 02:13:00,34.5,25.7,30.13,East,90,1.1,0.0,70,0.00,CLR,,0.00,WeatherDisplay:10.37,2013-01-18 07:13:00,
2013-01-18 02:18:00,34.5,25.7,30.13,NE,45,1.1,0.0,70,0.00,CLR,,0.00,WeatherDisplay:10.37,2013-01-18 07:18:00,
2013-01-18 02:23:00,34.2,25.7,30.13,SE,135,3.5,3.5,71,0.00,CLR,,0.00,WeatherDisplay:10.37,2013-01-18 07:23:00,
2013-01-18 02:28:00,34.5,25.4,30.13,South,180,5.8,5.8,69,0.00,CLR,,0.00,WeatherDisplay:10.37,2013-01-18 07:28:00,
2013-01-18 02:33:00,35.1,25.6,30.13,SW,225,5.8,5.8,68,0.00,CLR,,0.00,WeatherDisplay:10.37,2013-01-18 07:33:00,
2013-01-18 02:38:00,35.1,25.6,30.14,South,180,3.5,3.5,68,0.00,CLR,,0.00,WeatherDisplay:10.37,2013-01-18 07:38:00,
2013-01-18 02:43:00,34.9,25.4,30.14,South,180,3.5,3.5,68,0.00,CLR,,0.00,WeatherDisplay:10.37,2013-01-18 07:43:00,
2013-01-18 02:48:00,34.7,25.2,30.14,South,180,3.5,3.5,68,0.00,CLR,,0.00,WeatherDisplay:10.37,2013-01-18 07:48:00,
2013-01-18 02:53:00,34.7,25.6,30.14,South,180,5.8,5.8,69,0.00,CLR,,0.00,WeatherDisplay:10.37,2013-01-18 07:53:00,
2013-01-18 02:58:00,34.7,25.6,30.13,South,180,4.6,4.6,69,0.00,CLR,,0.00,WeatherDisplay:10.37,2013-01-18 07:58:00,
2013-01-18 03:03:00,34.7,25.2,30.13,NW,315,4.6,4.6,68,0.00,CLR,,0.00,WeatherDisplay:10.37,2013-01-18 08:03:00,
2013-01-18 03:08:00,35.1,25.2,30.13,South,180,5.8,5.8,67,0.00,CLR,,0.00,WeatherDisplay:10.37,2013-01-18 08:08:00,
2013-01-18 03:13:00,35.4,25.2,30.14,SW,225,5.8,5.8,66,0.00,CLR,,0.00,WeatherDisplay:10.37,2013-01-18 08:13:00,
2013-01-18 03:18:00,35.4,25.5,30.14,South,180,5.8,5.8,67,0.00,OVC,,0.00,WeatherDisplay:10.37,2013-01-18 08:18:00,
2013-01-18 03:23:00,35.6,25.4,30.14,SW,225,5.8,5.8,66,0.00,OVC,,0.00,WeatherDisplay:10.37,2013-01-18 08:23:00,
2013-01-18 03:28:00,35.4,25.5,30.14,South,180,6.9,6.9,67,0.00,OVC,,0.00,WeatherDisplay:10.37,2013-01-18 08:28:00,
2013-01-18 03:33:00,35.6,25.7,30.14,SW,225,6.9,6.9,67,0.00,OVC,,0.00,WeatherDisplay:10.37,2013-01-18 08:33:00,
2013-01-18 03:38:00,35.6,25.4,30.14,SW,225,8.1,8.1,66,0.00,OVC,,0.00,WeatherDisplay:10.37,2013-01-18 08:38:00,
2013-01-18 03:43:00,35.4,25.2,30.15,SW,225,5.8,5.8,66,0.00,OVC,,0.00,WeatherDisplay:10.37,2013-01-18 08:43:00,
2013-01-18 03:48:00,35.6,24.6,30.15,South,180,5.8,5.8,64,0.00,OVC,,0.00,WeatherDisplay:10.37,2013-01-18 08:48:00,
2013-01-18 03:53:00,35.8,23.6,30.15,SW,225,10.4,10.4,61,0.00,OVC,,0.00,WeatherDisplay:10.37,2013-01-18 08:53:00,
2013-01-18 03:58:00,36.0,23.0,30.15,SW,225,8.1,8.1,59,0.00,OVC,,0.00,WeatherDisplay:10.37,2013-01-18 08:58:00,
2013-01-18 04:03:00,36.1,22.4,30.16,SW,225,8.1,8.1,57,0.00,BKN,,0.00,WeatherDisplay:10.37,2013-01-18 09:03:00,
2013-01-18 04:08:00,36.1,21.9,30.15,South,180,9.2,9.2,56,0.00,BKN,,0.00,WeatherDisplay:10.37,2013-01-18 09:08:00,
2013-01-18 04:13:00,36.0,21.8,30.16,SW,225,5.8,5.8,56,0.00,BKN,,0.00,WeatherDisplay:10.37,2013-01-18 09:13:00,
2013-01-18 04:18:00,36.0,21.3,30.16,South,180,8.1,8.1,55,0.00,BKN,,0.00,WeatherDisplay:10.37,2013-01-18 09:18:00,
2013-01-18 04:23:00,35.8,20.7,30.17,SW,225,8.1,8.1,54,0.00,BKN,,0.00,WeatherDisplay:10.37,2013-01-18 09:23:00,
2013-01-18 04:28:00,36.0,20.9,30.16,South,180,8.1,8.1,54,0.00,BKN,,0.00,WeatherDisplay:10.37,2013-01-18 09:28:00,
2013-01-18 04:33:00,35.8,20.7,30.16,South,180,5.8,5.8,54,0.00,BKN,,0.00,WeatherDisplay:10.37,2013-01-18 09:33:00,
2013-01-18 04:38:00,35.8,20.3,30.17,South,180,9.2,9.2,53,0.00,BKN,,0.00,WeatherDisplay:10.37,2013-01-18 09:38:00,
2013-01-18 04:43:00,35.6,20.6,30.17,SW,225,10.4,10.4,54,0.00,BKN,,0.00,WeatherDisplay:10.37,2013-01-18 09:43:00,
2013-01-18 04:48:00,35.4,20.8,30.18,West,270,5.8,5.8,55,0.00,BKN,,0.00,WeatherDisplay:10.37,2013-01-18 09:48:00,
2013-01-18 04:53:00,35.2,21.1,30.19,SW,225,6.9,6.9,56,0.00,BKN,,0.00,WeatherDisplay:10.37,2013-01-18 09:53:00,
2013-01-18 04:58:00,35.1,20.5,30.18,SW,225,4.6,4.6,55,0.00,BKN,,0.00,WeatherDisplay:10.37,2013-01-18 09:58:00,
2013-01-18 05:03:00,34.9,19.9,30.18,NW,315,8.1,8.1,54,0.00,BKN,,0.00,WeatherDisplay:10.37,2013-01-18 10:03:00,
2013-01-18 05:08:00,34.9,19.9,30.19,SW,225,9.2,9.2,54,0.00,BKN,,0.00,WeatherDisplay:10.37,2013-01-18 10:08:00,
2013-01-18 05:13:00,34.7,19.3,30.19,West,270,5.8,5.8,53,0.00,BKN,,0.00,WeatherDisplay:10.37,2013-01-18 10:13:00,
2013-01-18 05:18:00,34.5,18.2,30.19,South,180,12.7,12.7,51,0.00,OVC,,0.00,WeatherDisplay:10.37,2013-01-18 10:18:00,
2013-01-18 05:23:00,34.3,18.1,30.20,SW,225,8.1,8.1,51,0.00,OVC,,0.00,WeatherDisplay:10.37,2013-01-18 10:23:00,
2013-01-18 05:28:00,34.2,18.3,30.20,SW,225,8.1,8.1,52,0.00,OVC,,0.00,WeatherDisplay:10.37,2013-01-18 10:28:00,
2013-01-18 05:33:00,33.8,18.0,30.20,SW,225,7.6,7.6,52,0.00,OVC,,0.00,WeatherDisplay:10.37,2013-01-18 10:33:00,
2013-01-18 05:38:00,33.6,17.8,30.21,South,180,6.9,6.9,52,0.00,OVC,,0.00,WeatherDisplay:10.37,2013-01-18 10:38:00,
2013-01-18 05:43:00,33.4,18.1,30.21,South,180,8.1,8.1,53,0.00,OVC,,0.00,WeatherDisplay:10.37,2013-01-18 10:43:00,
2013-01-18 05:48:00,33.1,16.9,30.21,SW,225,8.1,8.1,51,0.00,OVC,,0.00,WeatherDisplay:10.37,2013-01-18 10:48:00,
2013-01-18 05:53:00,32.9,16.7,30.22,West,270,6.9,6.9,51,0.00,OVC,,0.00,WeatherDisplay:10.37,2013-01-18 10:53:00,
2013-01-18 05:58:00,32.7,17.0,30.22,SW,225,8.1,8.1,52,0.00,OVC,,0.00,WeatherDisplay:10.37,2013-01-18 10:58:00,
2013-01-18 06:03:00,32.4,16.7,30.23,SW,225,5.8,5.8,52,0.00,CLR,,0.00,WeatherDisplay:10.37,2013-01-18 11:03:00,
2013-01-18 06:08:00,32.4,17.1,30.24,SW,225,4.6,4.6,53,0.00,CLR,,0.00,WeatherDisplay:10.37,2013-01-18 11:08:00,
2013-01-18 06:13:00,32.0,17.6,30.24,SW,225,3.5,3.5,55,0.00,CLR,,0.00,WeatherDisplay:10.37,2013-01-18 11:13:00,
2013-01-18 06:18:00,31.8,17.5,30.25,NW,315,6.9,6.9,55,0.00,CLR,,0.00,WeatherDisplay:10.37,2013-01-18 11:18:00,
2013-01-18 06:23:00,31.5,18.0,30.25,South,180,5.8,5.8,57,0.00,CLR,,0.00,WeatherDisplay:10.37,2013-01-18 11:23:00,
2013-01-18 06:28:00,31.5,17.6,30.26,SW,225,8.1,8.1,56,0.00,CLR,,0.00,WeatherDisplay:10.37,2013-01-18 11:28:00,
2013-01-18 06:33:00,31.3,17.0,30.26,NW,315,4.6,4.6,55,0.00,CLR,,0.00,WeatherDisplay:10.37,2013-01-18 11:33:00,
2013-01-18 06:38:00,31.1,16.4,30.26,West,270,8.1,8.1,54,0.00,CLR,,0.00,WeatherDisplay:10.37,2013-01-18 11:38:00,
2013-01-18 06:43:00,30.9,16.2,30.27,West,270,4.6,4.6,54,0.00,CLR,,0.00,WeatherDisplay:10.37,2013-01-18 11:43:00,
2013-01-18 06:48:00,30.6,15.9,30.28,SW,225,5.8,5.8,54,0.00,CLR,,0.00,WeatherDisplay:10.37,2013-01-18 11:48:00,
2013-01-18 06:53:00,30.6,16.3,30.29,NW,315,3.5,3.5,55,0.00,CLR,,0.00,WeatherDisplay:10.37,2013-01-18 11:53:00,
2013-01-18 06:58:00,30.4,15.7,30.29,West,270,6.9,6.9,54,0.00,CLR,,0.00,WeatherDisplay:10.37,2013-01-18 11:58:00,
2013-01-18 07:03:00,30.4,16.1,30.29,West,270,3.5,3.5,55,0.00,CLR,,0.00,WeatherDisplay:10.37,2013-01-18 12:03:00,
2013-01-18 07:08:00,30.2,16.0,30.30,WSW,248,5.8,5.8,55,0.00,CLR,,0.00,WeatherDisplay:10.37,2013-01-18 12:08:00,
2013-01-18 07:13:00,30.0,16.2,30.30,NNW,338,4.6,4.6,56,0.00,CLR,,0.00,WeatherDisplay:10.37,2013-01-18 12:13:00,
2013-01-18 07:18:00,30.0,15.8,30.31,South,180,5.8,5.8,55,0.00,CLR,,0.00,WeatherDisplay:10.37,2013-01-18 12:18:00,
2013-01-18 07:23:00,30.2,16.0,30.32,SW,225,3.5,3.5,55,0.00,CLR,,0.00,WeatherDisplay:10.37,2013-01-18 12:23:00,
2013-01-18 07:28:00,30.2,16.4,30.32,South,180,2.3,2.3,56,0.00,CLR,,0.00,WeatherDisplay:10.37,2013-01-18 12:28:00,
2013-01-18 07:33:00,30.0,16.6,30.32,West,270,2.3,2.3,57,0.00,CLR,,0.00,WeatherDisplay:10.37,2013-01-18 12:33:00,
2013-01-18 07:38:00,30.0,16.6,30.33,NW,315,4.6,4.6,57,0.00,CLR,,0.00,WeatherDisplay:10.37,2013-01-18 12:38:00,
2013-01-18 07:43:00,30.0,17.0,30.33,NE,45,3.5,3.5,58,0.00,CLR,,0.00,WeatherDisplay:10.37,2013-01-18 12:43:00,
2013-01-18 07:48:00,30.2,17.6,30.34,South,180,4.5,4.5,59,0.00,CLR,,0.00,WeatherDisplay:10.37,2013-01-18 12:48:00,
2013-01-18 07:53:00,30.0,18.6,30.34,NW,315,5.8,5.8,62,0.00,CLR,,0.00,WeatherDisplay:10.37,2013-01-18 12:53:00,
2013-01-18 07:58:00,30.0,19.3,30.35,West,270,4.6,4.6,64,0.00,CLR,,0.00,WeatherDisplay:10.37,2013-01-18 12:58:00,
2013-01-18 08:03:00,30.2,19.8,30.36,West,270,3.5,3.5,65,0.00,CLR,,0.00,WeatherDisplay:10.37,2013-01-18 13:03:00,
2013-01-18 08:08:00,30.4,19.6,30.36,West,270,4.6,4.6,64,0.00,CLR,,0.00,WeatherDisplay:10.37,2013-01-18 13:08:00,
2013-01-18 08:13:00,29.8,18.8,30.37,SW,225,5.8,5.8,63,0.00,CLR,,0.00,WeatherDisplay:10.37,2013-01-18 13:13:00,
2013-01-18 08:18:00,29.8,18.0,30.37,SW,225,6.9,6.9,61,0.00,CLR,,0.00,WeatherDisplay:10.37,2013-01-18 13:18:00,
2013-01-18 08:23:00,29.8,18.0,30.37,SW,225,4.6,4.6,61,0.00,CLR,,0.00,WeatherDisplay:10.37,2013-01-18 13:23:00,
2013-01-18 08:28:00,30.0,18.2,30.38,South,180,3.5,3.5,61,0.00,CLR,,0.00,WeatherDisplay:10.37,2013-01-18 13:28:00,
2013-01-18 08:33:00,29.8,18.0,30.38,South,180,3.5,3.5,61,0.00,OVC,,0.00,WeatherDisplay:10.37,2013-01-18 13:33:00,
2013-01-18 08:38:00,29.8,18.8,30.38,SW,225,3.5,3.5,63,0.00,OVC,,0.00,WeatherDisplay:10.37,2013-01-18 13:38:00,
2013-01-18 08:43:00,29.8,19.1,30.39,South,180,3.5,3.5,64,0.00,OVC,,0.00,WeatherDisplay:10.37,2013-01-18 13:43:00,
2013-01-18 08:48:00,30.0,18.6,30.39,NNW,338,5.8,5.8,62,0.00,OVC,,0.00,WeatherDisplay:10.37,2013-01-18 13:48:00,
2013-01-18 08:53:00,29.7,17.8,30.40,SW,225,6.9,6.9,61,0.00,OVC,,0.00,WeatherDisplay:10.37,2013-01-18 13:53:00,
2013-01-18 08:58:00,29.7,16.7,30.40,SW,225,9.2,9.2,58,0.00,OVC,,0.00,WeatherDisplay:10.37,2013-01-18 13:58:00,
2013-01-18 09:03:00,29.7,15.9,30.40,South,180,5.8,5.8,56,0.00,OVC,,0.00,WeatherDisplay:10.37,2013-01-18 14:03:00,
2013-01-18 09:08:00,29.8,15.6,30.40,SW,225,5.8,5.8,55,0.00,OVC,,0.00,WeatherDisplay:10.37,2013-01-18 14:08:00,
2013-01-18 09:13:00,30.0,16.2,30.41,South,180,5.8,5.8,56,0.00,OVC,,0.00,WeatherDisplay:10.37,2013-01-18 14:13:00,
2013-01-18 09:18:00,31.5,17.1,30.41,NW,315,4.6,4.6,55,0.00,BKN,,0.00,WeatherDisplay:10.37,2013-01-18 14:18:00,
2013-01-18 09:23:00,31.5,17.1,30.42,NE,45,5.8,5.8,55,0.00,BKN,,0.00,WeatherDisplay:10.37,2013-01-18 14:23:00,
2013-01-18 09:28:00,31.6,16.4,30.42,NW,315,5.8,5.8,53,0.00,BKN,,0.00,WeatherDisplay:10.37,2013-01-18 14:28:00,
2013-01-18 09:33:00,32.9,16.7,30.43,SE,135,4.6,4.6,51,0.00,BKN,,0.00,WeatherDisplay:10.37,2013-01-18 14:33:00,
2013-01-18 09:38:00,33.4,16.3,30.43,South,180,5.8,5.8,49,0.00,BKN,,0.00,WeatherDisplay:10.37,2013-01-18 14:38:00,
2013-01-18 09:43:00,34.0,16.3,30.44,West,270,6.9,6.9,48,0.00,BKN,,0.00,WeatherDisplay:10.37,2013-01-18 14:43:00,
2013-01-18 09:48:00,34.3,16.2,30.44,ESE,112,5.8,5.8,47,0.00,BKN,,0.00,WeatherDisplay:10.37,2013-01-18 14:48:00,
2013-01-18 09:53:00,34.0,15.8,30.44,West,270,5.8,5.8,47,0.00,BKN,,0.00,WeatherDisplay:10.37,2013-01-18 14:53:00,
2013-01-18 09:58:00,33.6,15.5,30.44,SW,225,4.6,4.6,47,0.00,BKN,,0.00,WeatherDisplay:10.37,2013-01-18 14:58:00,
2013-01-18 10:03:00,33.8,15.7,30.45,South,180,4.5,4.5,47,0.00,BKN,,0.00,WeatherDisplay:10.37,2013-01-18 15:03:00,
2013-01-18 10:08:00,34.0,15.8,30.44,West,270,3.5,3.5,47,0.00,BKN,,0.00,WeatherDisplay:10.37,2013-01-18 15:08:00,
2013-01-18 10:13:00,34.2,15.5,30.45,SW,225,5.8,5.8,46,0.00,BKN,,0.00,WeatherDisplay:10.37,2013-01-18 15:13:00,
2013-01-18 10:18:00,33.8,15.2,30.45,South,180,5.8,5.8,46,0.00,BKN,,0.00,WeatherDisplay:10.37,2013-01-18 15:18:00,
2013-01-18 10:23:00,33.8,15.7,30.45,South,180,4.6,4.6,47,0.00,BKN,,0.00,WeatherDisplay:10.37,2013-01-18 15:23:00,
2013-01-18 10:28:00,36.0,17.2,30.45,West,270,3.8,3.8,46,0.00,BKN,,0.00,WeatherDisplay:10.37,2013-01-18 15:28:00,
2013-01-18 10:33:00,35.4,15.1,30.45,SW,225,4.6,4.6,43,0.00,CLR,,0.00,WeatherDisplay:10.37,2013-01-18 15:33:00,
2013-01-18 10:38:00,34.9,15.1,30.45,West,270,4.6,4.6,44,0.00,CLR,,0.00,WeatherDisplay:10.37,2013-01-18 15:38:00,
2013-01-18 10:43:00,35.1,15.8,30.46,SW,225,4.6,4.6,45,0.00,CLR,,0.00,WeatherDisplay:10.37,2013-01-18 15:43:00,
2013-01-18 10:48:00,33.8,14.7,30.46,West,270,6.9,6.9,45,0.00,CLR,,0.00,WeatherDisplay:10.37,2013-01-18 15:48:00,
2013-01-18 10:53:00,34.3,15.7,30.46,South,180,3.5,3.5,46,0.00,CLR,,0.00,WeatherDisplay:10.37,2013-01-18 15:53:00,
2013-01-18 10:58:00,35.6,15.3,30.46,SW,225,5.8,5.8,43,0.00,CLR,,0.00,WeatherDisplay:10.37,2013-01-18 15:58:00,
2013-01-18 11:03:00,36.3,15.9,30.46,South,180,3.5,3.5,43,0.00,CLR,,0.00,WeatherDisplay:10.37,2013-01-18 16:03:00,
2013-01-18 11:08:00,37.2,15.6,30.46,West,270,4.6,4.6,41,0.00,CLR,,0.00,WeatherDisplay:10.37,2013-01-18 16:08:00,
2013-01-18 11:13:00,36.3,13.7,30.46,SW,225,5.8,5.8,39,0.00,CLR,,0.00,WeatherDisplay:10.37,2013-01-18 16:13:00,
2013-01-18 11:18:00,37.2,14.5,30.45,SW,225,3.5,3.5,39,0.00,CLR,,0.00,WeatherDisplay:10.37,2013-01-18 16:18:00,
2013-01-18 11:23:00,37.8,15.6,30.45,South,180,4.6,4.6,40,0.00,CLR,,0.00,WeatherDisplay:10.37,2013-01-18 16:23:00,
2013-01-18 11:28:00,39.0,16.1,30.46,South,180,3.5,3.5,39,0.00,CLR,,0.00,WeatherDisplay:10.37,2013-01-18 16:28:00,
2013-01-18 11:33:00,40.6,17.0,30.45,West,270,3.5,3.5,38,0.00,CLR,,0.00,WeatherDisplay:10.37,2013-01-18 16:33:00,
2013-01-18 11:38:00,41.2,16.8,30.44,West,270,3.5,3.5,37,0.00,CLR,,0.00,WeatherDisplay:10.37,2013-01-18 16:38:00,
2013-01-18 11:43:00,40.3,14.8,30.44,South,180,3.5,3.5,35,0.00,CLR,,0.00,WeatherDisplay:10.37,2013-01-18 16:43:00,
2013-01-18 11:48:00,40.1,15.2,30.44,West,270,3.5,3.5,36,0.00,CLR,,0.00,WeatherDisplay:10.37,2013-01-18 16:48:00,
2013-01-18 11:53:00,40.8,16.5,30.44,South,180,4.6,4.6,37,0.00,CLR,,0.00,WeatherDisplay:10.37,2013-01-18 16:53:00,
2013-01-18 11:58:00,40.6,15.1,30.44,NW,315,4.6,4.6,35,0.00,CLR,,0.00,WeatherDisplay:10.37,2013-01-18 16:58:00,
2013-01-18 12:03:00,39.9,15.1,30.44,SW,225,3.5,3.5,36,0.00,CLR,,0.00,WeatherDisplay:10.37,2013-01-18 17:03:00,
2013-01-18 12:08:00,42.1,16.4,30.44,SW,225,2.3,2.3,35,0.00,CLR,,0.00,WeatherDisplay:10.37,2013-01-18 17:08:00,
2013-01-18 12:13:00,42.3,15.2,30.44,SW,225,3.5,3.5,33,0.00,CLR,,0.00,WeatherDisplay:10.37,2013-01-18 17:13:00,
2013-01-18 12:18:00,40.8,11.7,30.44,SE,135,4.6,4.6,30,0.00,CLR,,0.00,WeatherDisplay:10.37,2013-01-18 17:18:00,
2013-01-18 12:23:00,39.0,11.6,30.43,South,180,4.6,4.6,32,0.00,CLR,,0.00,WeatherDisplay:10.37,2013-01-18 17:23:00,
2013-01-18 12:28:00,39.2,11.8,30.43,South,180,3.5,3.5,32,0.00,CLR,,0.00,WeatherDisplay:10.37,2013-01-18 17:28:00,
2013-01-18 12:33:00,40.6,13.0,30.43,South,180,4.6,4.6,32,0.00,CLR,,0.00,WeatherDisplay:10.37,2013-01-18 17:33:00,
2013-01-18 12:38:00,41.0,12.6,30.43,WNW,292,4.6,4.6,31,0.00,CLR,,0.00,WeatherDisplay:10.37,2013-01-18 17:38:00,
2013-01-18 12:43:00,42.6,14.8,30.42,East,90,3.5,0.0,32,0.00,CLR,,0.00,WeatherDisplay:10.37,2013-01-18 17:43:00,
2013-01-18 12:48:00,43.9,14.4,30.42,SW,225,3.5,3.5,30,0.00,CLR,,0.00,WeatherDisplay:10.37,2013-01-18 17:48:00,
2013-01-18 12:53:00,43.0,12.0,30.42,SW,225,3.5,3.5,28,0.00,CLR,,0.00,WeatherDisplay:10.37,2013-01-18 17:53:00,
2013-01-18 12:58:00,40.6,10.8,30.42,SE,135,4.6,4.6,29,0.00,CLR,,0.00,WeatherDisplay:10.37,2013-01-18 17:58:00,
2013-01-18 13:03:00,41.7,13.3,30.42,SW,225,3.5,3.5,31,0.00,CLR,,0.00,WeatherDisplay:10.37,2013-01-18 18:03:00,
2013-01-18 13:08:00,41.7,12.5,30.42,East,90,3.5,0.0,30,0.00,CLR,,0.00,WeatherDisplay:10.37,2013-01-18 18:08:00,
2013-01-18 13:13:00,41.5,12.4,30.42,South,180,3.5,3.5,30,0.00,CLR,,0.00,WeatherDisplay:10.37,2013-01-18 18:13:00,
2013-01-18 13:18:00,42.1,13.6,30.42,NW,315,4.6,4.6,31,0.00,CLR,,0.00,WeatherDisplay:10.37,2013-01-18 18:18:00,
2013-01-18 13:23:00,41.4,12.9,30.42,West,270,4.6,4.6,31,0.00,CLR,,0.00,WeatherDisplay:10.37,2013-01-18 18:23:00,
2013-01-18 13:28:00,41.2,12.8,30.42,SW,225,2.3,2.3,31,0.00,CLR,,0.00,WeatherDisplay:10.37,2013-01-18 18:28:00,
2013-01-18 13:33:00,41.0,13.4,30.42,SW,225,4.6,4.6,32,0.00,CLR,,0.00,WeatherDisplay:10.37,2013-01-18 18:33:00,
2013-01-18 13:38:00,40.3,12.0,30.43,SW,225,3.5,3.5,31,0.00,CLR,,0.00,WeatherDisplay:10.37,2013-01-18 18:38:00,
2013-01-18 13:43:00,39.6,10.6,30.43,SW,225,4.6,4.6,30,0.00,CLR,,0.00,WeatherDisplay:10.37,2013-01-18 18:43:00,
2013-01-18 13:48:00,37.9,9.9,30.43,West,270,3.5,3.5,31,0.00,CLR,,0.00,WeatherDisplay:10.37,2013-01-18 18:48:00,
2013-01-18 13:53:00,37.0,9.9,30.42,West,270,4.6,4.6,32,0.00,CLR,,0.00,WeatherDisplay:10.37,2013-01-18 18:53:00,
2013-01-18 13:58:00,36.3,10.6,30.42,West,270,4.6,4.6,34,0.00,CLR,,0.00,WeatherDisplay:10.37,2013-01-18 18:58:00,
2013-01-18 14:03:00,36.3,11.2,30.42,SW,225,4.6,4.6,35,0.00,CLR,,0.00,WeatherDisplay:10.37,2013-01-18 19:03:00,
2013-01-18 14:08:00,36.1,10.4,30.43,South,180,4.6,4.6,34,0.00,CLR,,0.00,WeatherDisplay:10.37,2013-01-18 19:08:00,
2013-01-18 14:13:00,35.8,9.4,30.43,South,180,6.0,6.0,33,0.00,CLR,,0.00,WeatherDisplay:10.37,2013-01-18 19:13:00,
2013-01-18 14:18:00,35.4,9.8,30.43,South,180,3.5,3.5,34,0.00,CLR,,0.00,WeatherDisplay:10.37,2013-01-18 19:18:00,
2013-01-18 14:23:00,35.4,9.8,30.43,South,180,3.5,3.5,34,0.00,CLR,,0.00,WeatherDisplay:10.37,2013-01-18 19:23:00,
2013-01-18 14:28:00,36.0,10.9,30.43,South,180,5.8,5.8,35,0.00,CLR,,0.00,WeatherDisplay:10.37,2013-01-18 19:28:00,
2013-01-18 14:33:00,36.3,10.6,30.43,South,180,3.5,3.5,34,0.00,CLR,,0.00,WeatherDisplay:10.37,2013-01-18 19:33:00,
2013-01-18 14:38:00,36.0,9.6,30.42,SW,225,4.6,4.6,33,0.00,CLR,,0.00,WeatherDisplay:10.37,2013-01-18 19:38:00,
2013-01-18 14:43:00,36.5,11.4,30.43,SW,225,3.5,3.5,35,0.00,CLR,,0.00,WeatherDisplay:10.37,2013-01-18 19:43:00,
2013-01-18 14:48:00,36.5,8.7,30.43,South,180,5.8,5.8,31,0.00,CLR,,0.00,WeatherDisplay:10.37,2013-01-18 19:48:00,
2013-01-18 14:53:00,36.5,9.4,30.42,SE,135,3.5,3.5,32,0.00,CLR,,0.00,WeatherDisplay:10.37,2013-01-18 19:53:00,
2013-01-18 14:58:00,36.7,8.8,30.43,South,180,4.6,4.6,31,0.00,CLR,,0.00,WeatherDisplay:10.37,2013-01-18 19:58:00,
2013-01-18 15:03:00,36.3,9.2,30.43,South,180,5.8,5.8,32,0.00,CLR,,0.00,WeatherDisplay:10.37,2013-01-18 20:03:00,
2013-01-18 15:08:00,36.7,8.8,30.43,South,180,4.6,4.6,31,0.00,CLR,,0.00,WeatherDisplay:10.37,2013-01-18 20:08:00,
2013-01-18 15:13:00,36.5,8.7,30.43,SW,225,3.5,3.5,31,0.00,CLR,,0.00,WeatherDisplay:10.37,2013-01-18 20:13:00,
2013-01-18 15:18:00,36.5,8.7,30.42,SW,225,2.3,2.3,31,0.00,CLR,,0.00,WeatherDisplay:10.37,2013-01-18 20:18:00,
2013-01-18 15:23:00,36.7,8.8,30.43,South,180,2.3,2.3,31,0.00,CLR,,0.00,WeatherDisplay:10.37,2013-01-18 20:23:00,
2013-01-18 15:28:00,36.9,9.7,30.43,South,180,3.5,3.5,32,0.00,CLR,,0.00,WeatherDisplay:10.37,2013-01-18 20:28:00,
2013-01-18 15:33:00,37.2,9.3,30.43,South,180,3.5,3.5,31,0.00,CLR,,0.00,WeatherDisplay:10.37,2013-01-18 20:33:00,
2013-01-18 15:38:00,37.0,8.4,30.44,SW,225,3.5,3.5,30,0.00,CLR,,0.00,WeatherDisplay:10.37,2013-01-18 20:38:00,
2013-01-18 15:43:00,37.4,9.5,30.44,South,180,5.4,5.4,31,0.00,CLR,,0.00,WeatherDisplay:10.37,2013-01-18 20:43:00,
2013-01-18 15:48:00,37.8,11.2,30.44,SW,225,3.5,3.5,33,0.00,CLR,,0.00,WeatherDisplay:10.37,2013-01-18 20:48:00,
2013-01-18 15:53:00,37.8,10.5,30.44,SW,225,4.6,4.6,32,0.00,CLR,,0.00,WeatherDisplay:10.37,2013-01-18 20:53:00,
2013-01-18 15:58:00,37.2,10.7,30.44,South,180,3.5,3.5,33,0.00,CLR,,0.00,WeatherDisplay:10.37,2013-01-18 20:58:00,
2013-01-18 16:03:00,37.4,10.9,30.44,SSW,202,2.3,2.3,33,0.00,CLR,,0.00,WeatherDisplay:10.37,2013-01-18 21:03:00,
2013-01-18 16:08:00,37.0,10.6,30.43,SE,135,3.5,3.5,33,0.00,CLR,,0.00,WeatherDisplay:10.37,2013-01-18 21:08:00,
2013-01-18 16:13:00,37.0,10.6,30.43,South,180,2.3,2.3,33,0.00,CLR,,0.00,WeatherDisplay:10.37,2013-01-18 21:13:00,
2013-01-18 16:18:00,36.7,10.9,30.43,SW,225,2.3,2.3,34,0.00,CLR,,0.00,WeatherDisplay:10.37,2013-01-18 21:18:00,
2013-01-18 16:23:00,36.1,10.4,30.43,SW,225,2.3,2.3,34,0.00,CLR,,0.00,WeatherDisplay:10.37,2013-01-18 21:23:00,
2013-01-18 16:28:00,35.8,10.1,30.42,SE,135,1.1,1.1,34,0.00,CLR,,0.00,WeatherDisplay:10.37,2013-01-18 21:28:00,
2013-01-18 16:33:00,35.6,10.6,30.43,South,180,1.1,1.1,35,0.00,CLR,,0.00,WeatherDisplay:10.37,2013-01-18 21:33:00,
2013-01-18 16:38:00,35.6,11.2,30.43,South,180,2.3,2.3,36,0.00,CLR,,0.00,WeatherDisplay:10.37,2013-01-18 21:38:00,
2013-01-18 16:43:00,35.6,10.6,30.42,South,180,2.3,2.3,35,0.00,CLR,,0.00,WeatherDisplay:10.37,2013-01-18 21:43:00,
2013-01-18 16:48:00,35.2,10.3,30.42,South,180,1.1,1.1,35,0.00,CLR,,0.00,WeatherDisplay:10.37,2013-01-18 21:48:00,
2013-01-18 16:53:00,34.9,10.0,30.42,South,180,1.1,0.0,35,0.00,CLR,,0.00,WeatherDisplay:10.37,2013-01-18 21:53:00,
2013-01-18 16:58:00,34.5,9.6,30.42,South,180,1.1,0.0,35,0.00,CLR,,0.00,WeatherDisplay:10.37,2013-01-18 21:58:00,
2013-01-18 17:03:00,34.3,10.1,30.42,South,180,0.0,0.0,36,0.00,CLR,,0.00,WeatherDisplay:10.37,2013-01-18 22:03:00,
2013-01-18 17:08:00,34.2,9.9,30.42,East,90,0.0,0.0,36,0.00,CLR,,0.00,WeatherDisplay:10.37,2013-01-18 22:08:00,
2013-01-18 17:13:00,33.8,10.8,30.43,NE,45,1.1,0.0,38,0.00,CLR,,0.00,WeatherDisplay:10.37,2013-01-18 22:13:00,
2013-01-18 17:18:00,33.4,11.1,30.42,NE,45,0.0,0.0,39,0.00,CLR,,0.00,WeatherDisplay:10.37,2013-01-18 22:18:00,
2013-01-18 17:23:00,33.3,10.9,30.42,NE,45,0.0,0.0,39,0.00,CLR,,0.00,WeatherDisplay:10.37,2013-01-18 22:23:00,
2013-01-18 17:28:00,32.7,11.6,30.42,North,0,1.1,0.0,41,0.00,CLR,,0.00,WeatherDisplay:10.37,2013-01-18 22:28:00,
2013-01-18 17:33:00,32.2,11.1,30.42,North,0,0.0,0.0,41,0.00,CLR,,0.00,WeatherDisplay:10.37,2013-01-18 22:33:00,
2013-01-18 17:38:00,32.2,12.2,30.42,NE,45,2.3,2.3,43,0.00,CLR,,0.00,WeatherDisplay:10.37,2013-01-18 22:38:00,
2013-01-18 17:43:00,31.8,13.9,30.42,NE,45,2.3,2.3,47,0.00,CLR,,0.00,WeatherDisplay:10.37,2013-01-18 22:43:00,
2013-01-18 17:48:00,31.8,12.4,30.42,NE,45,2.3,2.3,44,0.00,CLR,,0.00,WeatherDisplay:10.37,2013-01-18 22:48:00,
2013-01-18 17:53:00,31.6,13.2,30.42,NE,45,3.5,3.5,46,0.00,CLR,,0.00,WeatherDisplay:10.37,2013-01-18 22:53:00,
2013-01-18 17:58:00,31.6,13.2,30.42,NE,45,2.3,2.3,46,0.00,CLR,,0.00,WeatherDisplay:10.37,2013-01-18 22:58:00,
2013-01-18 18:03:00,31.6,13.2,30.42,NE,45,2.3,2.3,46,0.00,CLR,,0.00,WeatherDisplay:10.37,2013-01-18 23:03:00,
2013-01-18 18:08:00,31.6,13.2,30.42,NE,45,2.3,2.3,46,0.00,CLR,,0.00,WeatherDisplay:10.37,2013-01-18 23:08:00,
2013-01-18 18:13:00,31.6,13.2,30.42,NE,45,3.5,3.5,46,0.00,CLR,,0.00,WeatherDisplay:10.37,2013-01-18 23:13:00,
2013-01-18 18:18:00,31.5,13.5,30.42,NE,45,2.3,2.3,47,0.00,CLR,,0.00,WeatherDisplay:10.37,2013-01-18 23:18:00,
2013-01-18 18:23:00,31.3,13.4,30.42,NE,45,1.1,1.1,47,0.00,CLR,,0.00,WeatherDisplay:10.37,2013-01-18 23:23:00,
2013-01-18 18:28:00,31.1,13.2,30.42,NE,45,1.1,1.1,47,0.00,CLR,,0.00,WeatherDisplay:10.37,2013-01-18 23:28:00,
2013-01-18 18:33:00,30.9,13.0,30.42,NE,45,1.1,0.0,47,0.00,CLR,,0.00,WeatherDisplay:10.37,2013-01-18 23:33:00,
2013-01-18 18:38:00,30.7,13.8,30.42,NE,45,2.3,2.3,49,0.00,CLR,,0.00,WeatherDisplay:10.37,2013-01-18 23:38:00,
2013-01-18 18:43:00,30.7,13.8,30.42,NE,45,2.3,2.3,49,0.00,CLR,,0.00,WeatherDisplay:10.37,2013-01-18 23:43:00,
2013-01-18 18:48:00,30.9,13.0,30.42,NE,45,2.3,2.3,47,0.00,CLR,,0.00,WeatherDisplay:10.37,2013-01-18 23:48:00,
2013-01-18 18:53:00,30.9,13.5,30.42,NE,45,2.2,2.2,48,0.00,CLR,,0.00,WeatherDisplay:10.37,2013-01-18 23:53:00,
2013-01-18 18:58:00,30.7,13.8,30.42,NE,45,1.1,0.0,49,0.00,CLR,,0.00,WeatherDisplay:10.37,2013-01-18 23:58:00,
2013-01-18 19:03:00,30.4,13.9,30.42,North,0,1.1,0.0,50,0.00,CLR,,0.00,WeatherDisplay:10.37,2013-01-19 00:03:00,
2013-01-18 19:08:00,29.8,13.4,30.41,North,0,0.0,0.0,50,0.00,CLR,,0.00,WeatherDisplay:10.37,2013-01-19 00:08:00,
2013-01-18 19:13:00,29.3,13.4,30.42,North,0,0.0,0.0,51,0.00,CLR,,0.00,WeatherDisplay:10.37,2013-01-19 00:13:00,
2013-01-18 19:18:00,28.9,13.1,30.42,North,0,0.0,0.0,51,0.00,CLR,,0.00,WeatherDisplay:10.37,2013-01-19 00:18:00,
2013-01-18 19:23:00,28.8,13.3,30.42,North,0,1.1,0.0,52,0.00,CLR,,0.00,WeatherDisplay:10.37,2013-01-19 00:23:00,
2013-01-18 19:28:00,28.8,13.8,30.42,North,0,1.1,0.0,53,0.00,CLR,,0.00,WeatherDisplay:10.37,2013-01-19 00:28:00,
2013-01-18 19:33:00,28.9,13.9,30.42,North,0,1.1,0.0,53,0.00,CLR,,0.00,WeatherDisplay:10.37,2013-01-19 00:33:00,
2013-01-18 19:38:00,29.1,14.1,30.42,NE,45,1.1,1.1,53,0.00,CLR,,0.00,WeatherDisplay:10.37,2013-01-19 00:38:00,
2013-01-18 19:43:00,29.3,15.1,30.42,NE,45,1.1,0.0,55,0.00,CLR,,0.00,WeatherDisplay:10.37,2013-01-19 00:43:00,
2013-01-18 19:48:00,29.3,15.1,30.42,NE,45,1.1,1.1,55,0.00,CLR,,0.00,WeatherDisplay:10.37,2013-01-19 00:48:00,
2013-01-18 19:53:00,29.5,15.3,30.41,NE,45,1.1,1.1,55,0.00,CLR,,0.00,WeatherDisplay:10.37,2013-01-19 00:53:00,
2013-01-18 19:58:00,29.7,15.5,30.41,NE,45,2.3,2.3,55,0.00,CLR,,0.00,WeatherDisplay:10.37,2013-01-19 00:58:00,
2013-01-18 20:03:00,29.5,15.3,30.41,NE,45,1.1,0.0,55,0.00,CLR,,0.00,WeatherDisplay:10.37,2013-01-19 01:03:00,
2013-01-18 20:08:00,29.3,15.1,30.41,NE,45,1.1,0.0,55,0.00,CLR,,0.00,WeatherDisplay:10.37,2013-01-19 01:08:00,
2013-01-18 20:13:00,29.1,15.4,30.41,NE,45,1.1,1.1,56,0.00,CLR,,0.00,WeatherDisplay:10.37,2013-01-19 01:13:00,
2013-01-18 20:18:00,29.1,14.9,30.41,NE,45,1.1,1.1,55,0.00,CLR,,0.00,WeatherDisplay:10.37,2013-01-19 01:18:00,
2013-01-18 20:23:00,28.9,15.2,30.41,NE,45,2.3,2.3,56,0.00,CLR,,0.00,WeatherDisplay:10.37,2013-01-19 01:23:00,
2013-01-18 20:28:00,29.1,15.4,30.41,NE,45,1.1,0.0,56,0.00,CLR,,0.00,WeatherDisplay:10.37,2013-01-19 01:28:00,
2013-01-18 20:33:00,28.9,15.2,30.41,NE,45,1.1,0.0,56,0.00,CLR,,0.00,WeatherDisplay:10.37,2013-01-19 01:33:00,
2013-01-18 20:38:00,28.8,15.4,30.41,NE,45,1.1,0.0,57,0.00,CLR,,0.00,WeatherDisplay:10.37,2013-01-19 01:38:00,
2013-01-18 20:43:00,28.9,15.2,30.41,North,0,2.3,2.3,56,0.00,CLR,,0.00,WeatherDisplay:10.37,2013-01-19 01:43:00,
2013-01-18 20:48:00,29.1,15.8,30.40,NE,45,2.3,0.0,57,0.00,CLR,,0.00,WeatherDisplay:10.37,2013-01-19 01:48:00,
2013-01-18 20:53:00,28.9,15.6,30.41,NE,45,1.1,0.0,57,0.00,CLR,,0.00,WeatherDisplay:10.37,2013-01-19 01:53:00,
2013-01-18 20:58:00,28.9,15.2,30.40,NE,45,1.1,0.0,56,0.00,CLR,,0.00,WeatherDisplay:10.37,2013-01-19 01:58:00,
2013-01-18 21:03:00,28.9,15.2,30.40,NE,45,0.0,0.0,56,0.00,CLR,,0.00,WeatherDisplay:10.37,2013-01-19 02:03:00,
2013-01-18 21:08:00,28.8,15.4,30.40,NE,45,0.0,0.0,57,0.00,CLR,,0.00,WeatherDisplay:10.37,2013-01-19 02:08:00,
2013-01-18 21:13:00,28.9,16.0,30.40,NE,45,2.3,2.3,58,0.00,CLR,,0.00,WeatherDisplay:10.37,2013-01-19 02:13:00,
2013-01-18 21:18:00,28.9,16.0,30.41,NE,45,1.1,1.1,58,0.00,CLR,,0.00,WeatherDisplay:10.37,2013-01-19 02:18:00,
2013-01-18 21:23:00,29.1,15.8,30.40,NE,45,1.1,1.1,57,0.00,CLR,,0.00,WeatherDisplay:10.37,2013-01-19 02:23:00,
2013-01-18 21:28:00,29.1,15.8,30.40,NE,45,1.1,0.0,57,0.00,CLR,,0.00,WeatherDisplay:10.37,2013-01-19 02:28:00,
2013-01-18 21:33:00,29.1,16.2,30.40,NE,45,2.3,2.3,58,0.00,CLR,,0.00,WeatherDisplay:10.37,2013-01-19 02:33:00,
2013-01-18 21:38:00,29.1,16.2,30.40,NE,45,2.3,2.3,58,0.00,CLR,,0.00,WeatherDisplay:10.37,2013-01-19 02:38:00,
2013-01-18 21:43:00,29.1,17.0,30.40,NE,45,2.3,2.3,60,0.00,CLR,,0.00,WeatherDisplay:10.37,2013-01-19 02:43:00,
2013-01-18 21:48:00,29.3,17.5,30.39,NE,45,2.3,2.3,61,0.00,CLR,,0.00,WeatherDisplay:10.37,2013-01-19 02:48:00,
2013-01-18 21:53:00,29.5,18.1,30.39,NE,45,3.5,3.5,62,0.00,CLR,,0.00,WeatherDisplay:10.37,2013-01-19 02:53:00,
2013-01-18 21:58:00,29.5,18.4,30.38,NE,45,3.5,3.5,63,0.00,CLR,,0.00,WeatherDisplay:10.37,2013-01-19 02:58:00,
2013-01-18 22:03:00,29.7,18.6,30.39,NE,45,2.3,2.3,63,0.00,CLR,,0.00,WeatherDisplay:10.37,2013-01-19 03:03:00,
2013-01-18 22:08:00,29.7,19.0,30.38,NE,45,2.3,2.3,64,0.00,CLR,,0.00,WeatherDisplay:10.37,2013-01-19 03:08:00,
2013-01-18 22:13:00,29.7,19.0,30.38,NE,45,2.2,2.2,64,0.00,CLR,,0.00,WeatherDisplay:10.37,2013-01-19 03:13:00,
2013-01-18 22:18:00,29.7,19.3,30.38,SW,225,1.1,1.1,65,0.00,CLR,,0.00,WeatherDisplay:10.37,2013-01-19 03:18:00,
2013-01-18 22:23:00,29.8,20.2,30.38,East,90,2.3,2.3,67,0.00,CLR,,0.00,WeatherDisplay:10.37,2013-01-19 03:23:00,
2013-01-18 22:28:00,30.2,20.9,30.37,East,90,2.3,0.0,68,0.00,CLR,,0.00,WeatherDisplay:10.37,2013-01-19 03:28:00,
2013-01-18 22:33:00,30.4,21.4,30.36,East,90,1.1,0.0,69,0.00,CLR,,0.00,WeatherDisplay:10.37,2013-01-19 03:33:00,
2013-01-18 22:38:00,30.6,21.6,30.36,East,90,1.1,0.0,69,0.00,CLR,,0.00,WeatherDisplay:10.37,2013-01-19 03:38:00,
2013-01-18 22:43:00,30.7,21.8,30.36,NE,45,1.1,0.0,69,0.00,CLR,,0.00,WeatherDisplay:10.37,2013-01-19 03:43:00,
2013-01-18 22:48:00,30.9,22.3,30.36,East,90,1.1,0.0,70,0.00,CLR,,0.00,WeatherDisplay:10.37,2013-01-19 03:48:00,
2013-01-18 22:53:00,30.9,22.6,30.36,South,180,1.1,0.0,71,0.00,CLR,,0.00,WeatherDisplay:10.37,2013-01-19 03:53:00,
2013-01-18 22:58:00,30.7,22.4,30.36,East,90,1.1,0.0,71,0.00,CLR,,0.00,WeatherDisplay:10.37,2013-01-19 03:58:00,
2013-01-18 23:03:00,30.7,22.8,30.35,SW,225,2.3,2.3,72,0.00,CLR,,0.00,WeatherDisplay:10.37,2013-01-19 04:03:00,
2013-01-18 23:08:00,30.7,22.8,30.35,NE,45,1.1,0.0,72,0.00,CLR,,0.00,WeatherDisplay:10.37,2013-01-19 04:08:00,
2013-01-18 23:13:00,30.9,22.6,30.34,South,180,1.1,1.1,71,0.00,CLR,,0.00,WeatherDisplay:10.37,2013-01-19 04:13:00,
2013-01-18 23:18:00,30.9,23.0,30.34,SE,135,2.3,2.3,72,0.00,CLR,,0.00,WeatherDisplay:10.37,2013-01-19 04:18:00,
2013-01-18 23:23:00,30.7,22.8,30.34,SE,135,1.1,0.0,72,0.00,CLR,,0.00,WeatherDisplay:10.37,2013-01-19 04:23:00,
2013-01-18 23:28:00,30.6,22.6,30.34,SW,225,1.1,0.0,72,0.00,CLR,,0.00,WeatherDisplay:10.37,2013-01-19 04:28:00,
2013-01-18 23:33:00,30.6,22.6,30.34,NW,315,1.1,0.0,72,0.00,CLR,,0.00,WeatherDisplay:10.37,2013-01-19 04:33:00,
2013-01-18 23:38:00,30.4,22.4,30.34,SE,135,1.1,0.0,72,0.00,CLR,,0.00,WeatherDisplay:10.37,2013-01-19 04:38:00,
2013-01-18 23:43:00,30.6,22.9,30.34,NW,315,2.3,0.0,73,0.00,CLR,,0.00,WeatherDisplay:10.37,2013-01-19 04:43:00,
2013-01-18 23:48:00,30.6,22.9,30.33,SSW,202,2.3,2.3,73,0.00,CLR,,0.00,WeatherDisplay:10.37,2013-01-19 04:48:00,
2013-01-18 23:53:00,30.6,22.9,30.33,East,90,1.1,0.0,73,0.00,CLR,,0.00,WeatherDisplay:10.37,2013-01-19 04:53:00,
2013-01-18 23:58:00,30.6,22.9,30.33,North,0,2.3,2.3,73,0.00,CLR,,0.00,WeatherDisplay:10.37,2013-01-19 04:58:00,